| time (UTC) | temp F | wind direction | speed MPH | gust MPH | rain 1hr in | rain 24hr in | rain mn in | humidity % | barometer mb |
| 20260503220409 | 62 | 266 | 6.0 | 16.0 | 0.00 | 0.00 | 0.00 | 47 | 1010.5 |
| 20260503215906 | 62 | 242 | 7.0 | 17.0 | 0.00 | 0.00 | 0.00 | 49 | 1010.6 |
| 20260503215337 | 62 | 244 | 7.0 | 17.0 | 0.00 | 0.00 | 0.00 | 47 | 1010.7 |
| 20260503214838 | 62 | 212 | 7.0 | 17.0 | 0.00 | 0.00 | 0.00 | 47 | 1010.7 |
| 20260503214329 | 62 | 211 | 7.0 | 15.0 | 0.00 | 0.00 | 0.00 | 47 | 1010.6 |
| 20260503213804 | 63 | 231 | 6.0 | 14.0 | 0.00 | 0.00 | 0.00 | 47 | 1010.7 |
| 20260503213243 | 63 | 285 | 6.0 | 13.0 | 0.00 | 0.00 | 0.00 | 47 | 1010.6 |
| 20260503212733 | 63 | 220 | 6.0 | 10.0 | 0.00 | 0.00 | 0.00 | 48 | 1010.7 |
| 20260503212208 | 63 | 269 | 6.0 | 12.0 | 0.00 | 0.00 | 0.00 | 48 | 1010.7 |
| 20260503211644 | 63 | 239 | 6.0 | 21.0 | 0.00 | 0.00 | 0.00 | 49 | 1010.7 |
| 20260503211115 | 63 | 213 | 7.0 | 21.0 | 0.00 | 0.00 | 0.00 | 49 | 1010.8 |
| 20260503210616 | 63 | 244 | 7.0 | 17.0 | 0.00 | 0.00 | 0.00 | 47 | 1010.8 |
| 20260503210046 | 63 | 263 | 7.0 | 17.0 | 0.00 | 0.00 | 0.00 | 47 | 1010.8 |
| 20260503205523 | 63 | 211 | 6.0 | 14.0 | 0.00 | 0.00 | 0.00 | 48 | 1010.9 |
| 20260503204959 | 63 | 245 | 6.0 | 13.0 | 0.00 | 0.00 | 0.00 | 48 | 1010.9 |
| 20260503204457 | 63 | 265 | 6.0 | 13.0 | 0.00 | 0.00 | 0.00 | 48 | 1010.9 |
| 20260503203957 | 63 | 207 | 7.0 | 13.0 | 0.00 | 0.00 | 0.00 | 49 | 1010.9 |
| 20260503203449 | 63 | 251 | 7.0 | 16.0 | 0.00 | 0.00 | 0.00 | 47 | 1010.9 |
| 20260503202925 | 63 | 227 | 6.0 | 15.0 | 0.00 | 0.00 | 0.00 | 47 | 1011.1 |
| 20260503202405 | 63 | 196 | 6.0 | 15.0 | 0.00 | 0.00 | 0.00 | 49 | 1011.1 |
| 20260503201906 | 63 | 234 | 7.0 | 15.0 | 0.00 | 0.00 | 0.00 | 46 | 1011.0 |
| 20260503201338 | 63 | 211 | 6.0 | 15.0 | 0.00 | 0.00 | 0.00 | 49 | 1011.1 |
| 20260503200830 | 63 | 254 | 7.0 | 16.0 | 0.00 | 0.00 | 0.00 | 49 | 1011.1 |
| 20260503200329 | 64 | 213 | 7.0 | 16.0 | 0.00 | 0.00 | 0.00 | 48 | 1011.1 |
| 20260503195828 | 64 | 241 | 7.0 | 13.0 | 0.00 | 0.00 | 0.00 | 47 | 1011.2 |
| 20260503195329 | 63 | 195 | 7.0 | 14.0 | 0.00 | 0.00 | 0.00 | 47 | 1011.2 |
| 20260503194803 | 64 | 267 | 6.0 | 14.0 | 0.00 | 0.00 | 0.00 | 46 | 1011.3 |
| 20260503194258 | 63 | 280 | 7.0 | 14.0 | 0.00 | 0.00 | 0.00 | 46 | 1011.4 |
| 20260503193803 | 63 | 254 | 7.0 | 16.0 | 0.00 | 0.00 | 0.00 | 49 | 1011.5 |
| 20260503193259 | 63 | 224 | 8.0 | 18.0 | 0.00 | 0.00 | 0.00 | 46 | 1011.5 |
| 20260503192748 | 64 | 189 | 7.0 | 18.0 | 0.00 | 0.00 | 0.00 | 46 | 1011.6 |
| 20260503192245 | 64 | 219 | 7.0 | 15.0 | 0.00 | 0.00 | 0.00 | 47 | 1011.7 |
| 20260503191745 | 64 | 265 | 6.0 | 14.0 | 0.00 | 0.00 | 0.00 | 46 | 1011.7 |
| 20260503191248 | 63 | 193 | 6.0 | 14.0 | 0.00 | 0.00 | 0.00 | 48 | 1011.8 |
| 20260503190728 | 63 | 178 | 6.0 | 14.0 | 0.00 | 0.00 | 0.00 | 48 | 1012.0 |
| 20260503190207 | 63 | 230 | 7.0 | 17.0 | 0.00 | 0.00 | 0.00 | 46 | 1012.0 |
| 20260503185654 | 63 | 221 | 6.0 | 17.0 | 0.00 | 0.00 | 0.00 | 48 | 1012.0 |
| 20260503185151 | 63 | 221 | 6.0 | 15.0 | 0.00 | 0.00 | 0.00 | 52 | 1012.2 |
| 20260503184628 | 62 | 244 | 7.0 | 19.0 | 0.00 | 0.00 | 0.00 | 48 | 1012.2 |
| 20260503184102 | 62 | 252 | 8.0 | 19.0 | 0.00 | 0.00 | 0.00 | 48 | 1012.3 |
| 20260503183606 | 62 | 250 | 7.0 | 17.0 | 0.00 | 0.00 | 0.00 | 47 | 1012.4 |
| 20260503183041 | 62 | 249 | 6.0 | 16.0 | 0.00 | 0.00 | 0.00 | 49 | 1012.5 |
| 20260503182544 | 62 | 157 | 6.0 | 16.0 | 0.00 | 0.00 | 0.00 | 49 | 1012.5 |
| 20260503182022 | 62 | 254 | 7.0 | 16.0 | 0.00 | 0.00 | 0.00 | 48 | 1012.6 |
| 20260503181458 | 62 | 268 | 7.0 | 13.0 | 0.00 | 0.00 | 0.00 | 48 | 1012.6 |
| 20260503180934 | 62 | 261 | 6.0 | 16.0 | 0.00 | 0.00 | 0.00 | 48 | 1012.8 |
| 20260503180433 | 62 | 239 | 6.0 | 15.0 | 0.00 | 0.00 | 0.00 | 48 | 1012.8 |
| 20260503175929 | 62 | 221 | 6.0 | 15.0 | 0.00 | 0.00 | 0.00 | 49 | 1012.9 |
| 20260503175428 | 62 | 236 | 7.0 | 17.0 | 0.00 | 0.00 | 0.00 | 48 | 1013.0 |
| 20260503174906 | 62 | 244 | 6.0 | 17.0 | 0.00 | 0.00 | 0.00 | 51 | 1013.0 |
| 20260503174344 | 62 | 252 | 6.0 | 11.0 | 0.00 | 0.00 | 0.00 | 53 | 1013.0 |
| 20260503173813 | 62 | 226 | 6.0 | 14.0 | 0.00 | 0.00 | 0.00 | 51 | 1013.0 |
| 20260503173311 | 61 | 268 | 7.0 | 16.0 | 0.00 | 0.00 | 0.00 | 52 | 1013.2 |
| 20260503172807 | 61 | 253 | 6.0 | 16.0 | 0.00 | 0.00 | 0.00 | 56 | 1013.2 |
| 20260503172305 | 61 | 235 | 6.0 | 14.0 | 0.00 | 0.00 | 0.00 | 55 | 1013.3 |
| 20260503171740 | 60 | 218 | 6.0 | 14.0 | 0.00 | 0.00 | 0.00 | 56 | 1013.4 |
| 20260503171215 | 60 | 213 | 6.0 | 13.0 | 0.00 | 0.00 | 0.00 | 56 | 1013.5 |
| 20260503170647 | 60 | 214 | 6.0 | 16.0 | 0.00 | 0.00 | 0.00 | 57 | 1013.6 |
| 20260503170122 | 60 | 252 | 5.0 | 16.0 | 0.00 | 0.00 | 0.00 | 58 | 1013.6 |
| 20260503150543 | 54 | 270 | 6.0 | 14.0 | 0.00 | 0.00 | 0.00 | 61 | 1014.4 |
| 20260503140248 | 50 | 246 | 6.0 | 19.0 | 0.00 | 0.00 | 0.00 | 66 | 1014.7 |
| 20260503131104 | 48 | 248 | 5.0 | 9.0 | 0.00 | 0.00 | 0.00 | 67 | 1014.8 |
| 20260503130557 | 48 | 249 | 5.0 | 10.0 | 0.00 | 0.00 | 0.00 | 66 | 1014.9 |
| 20260503110612 | 41 | 217 | 4.0 | 8.0 | 0.00 | 0.00 | 0.00 | 74 | 1015.0 |
| 20260503110113 | 41 | 250 | 3.0 | 8.0 | 0.00 | 0.00 | 0.00 | 75 | 1015.0 |
| 20260503090209 | 41 | 273 | 3.0 | 5.0 | 0.00 | 0.01 | 0.00 | 78 | 1014.8 |
| 20260503081532 | 41 | 228 | 3.0 | 6.0 | 0.00 | 0.09 | 0.00 | 79 | 1014.9 |
| 20260503081005 | 41 | 258 | 2.0 | 6.0 | 0.00 | 0.10 | 0.00 | 79 | 1015.0 |
| 20260503080437 | 41 | 245 | 2.0 | 7.0 | 0.00 | 0.12 | 0.00 | 79 | 1015.0 |
| 20260503072827 | 42 | 215 | 3.0 | 8.0 | 0.00 | 0.19 | 0.00 | 77 | 1015.0 |
| 20260503072318 | 42 | 200 | 3.0 | 7.0 | 0.00 | 0.21 | 0.00 | 77 | 1015.0 |
| 20260503071750 | 42 | 219 | 3.0 | 7.0 | 0.00 | 0.23 | 0.00 | 76 | 1015.0 |
| 20260503071248 | 42 | 225 | 3.0 | 7.0 | 0.00 | 0.25 | 0.00 | 76 | 1015.0 |
| 20260503070744 | 43 | 226 | 3.0 | 7.0 | 0.00 | 0.25 | 0.00 | 76 | 1015.0 |
| 20260503070243 | 43 | 250 | 3.0 | 9.0 | 0.00 | 0.25 | 0.00 | 76 | 1015.1 |
| 20260503055004 | 43 | 228 | 2.0 | 5.0 | 0.00 | 0.25 | 0.00 | 76 | 1015.4 |
| 20260503054435 | 44 | 242 | 2.0 | 5.0 | 0.00 | 0.25 | 0.00 | 75 | 1015.4 |
| 20260503053906 | 44 | 243 | 2.0 | 4.0 | 0.00 | 0.25 | 0.00 | 75 | 1015.7 |
| 20260503053402 | 44 | 242 | 2.0 | 4.0 | 0.00 | 0.25 | 0.00 | 75 | 1015.5 |
| 20260503052836 | 44 | 225 | 2.0 | 4.0 | 0.00 | 0.25 | 0.00 | 75 | 1015.4 |
| 20260503052337 | 44 | 221 | 2.0 | 5.0 | 0.00 | 0.25 | 0.00 | 74 | 1015.4 |
| 20260503051832 | 44 | 209 | 2.0 | 5.0 | 0.00 | 0.25 | 0.00 | 74 | 1015.5 |
| 20260503051306 | 44 | 208 | 3.0 | 6.0 | 0.00 | 0.25 | 0.00 | 73 | 1015.4 |
| 20260503050741 | 44 | 245 | 3.0 | 6.0 | 0.00 | 0.25 | 0.00 | 73 | 1015.5 |
| 20260503050212 | 44 | 234 | 2.0 | 5.0 | 0.00 | 0.25 | 0.00 | 73 | 1015.5 |
| 20260503045715 | 44 | 221 | 2.0 | 4.0 | 0.00 | 0.25 | 0.00 | 73 | 1015.7 |
| 20260503045144 | 44 | 239 | 2.0 | 4.0 | 0.00 | 0.25 | 0.00 | 73 | 1015.7 |
| 20260503044617 | 44 | 248 | 2.0 | 5.0 | 0.00 | 0.25 | 0.00 | 73 | 1015.7 |
| 20260503044113 | 44 | 246 | 2.0 | 5.0 | 0.00 | 0.25 | 0.00 | 72 | 1015.5 |
| 20260503043546 | 44 | 216 | 2.0 | 5.0 | 0.00 | 0.25 | 0.00 | 72 | 1015.5 |
| 20260503043021 | 44 | 216 | 2.0 | 5.0 | 0.00 | 0.25 | 0.00 | 71 | 1015.5 |
| 20260503042456 | 44 | 225 | 2.0 | 4.0 | 0.00 | 0.25 | 0.00 | 71 | 1015.5 |
| 20260503041952 | 44 | 225 | 2.0 | 4.0 | 0.00 | 0.25 | 0.00 | 70 | 1015.7 |
| 20260503041455 | 44 | 223 | 2.0 | 7.0 | 0.00 | 0.25 | 0.00 | 70 | 1015.7 |
| 20260503040925 | 44 | 223 | 2.0 | 7.0 | 0.00 | 0.25 | 0.00 | 69 | 1015.7 |
| 20260503040359 | 44 | 229 | 2.0 | 4.0 | 0.00 | 0.25 | 0.00 | 70 | 1015.8 |
| 20260503035901 | 44 | 228 | 2.0 | 3.0 | 0.00 | 0.25 | 0.25 | 70 | 1015.8 |
| 20260503035352 | 45 | 228 | 2.0 | 4.0 | 0.00 | 0.25 | 0.25 | 70 | 1015.8 |
| 20260503034847 | 45 | 238 | 2.0 | 3.0 | 0.00 | 0.25 | 0.25 | 70 | 1015.8 |
| 20260503034339 | 45 | 236 | 2.0 | 4.0 | 0.00 | 0.25 | 0.25 | 70 | 1015.8 |
| 20260503033842 | 45 | 197 | 1.0 | 3.0 | 0.00 | 0.25 | 0.25 | 70 | 1015.8 |
| 20260503033311 | 45 | 197 | 1.0 | 3.0 | 0.00 | 0.25 | 0.25 | 69 | 1015.8 |
| 20260503032744 | 45 | 190 | 1.0 | 3.0 | 0.00 | 0.25 | 0.25 | 69 | 1015.7 |
| 20260503032232 | 45 | 190 | 1.0 | 3.0 | 0.00 | 0.25 | 0.25 | 68 | 1015.9 |
| 20260503031732 | 45 | 190 | 1.0 | 3.0 | 0.00 | 0.25 | 0.25 | 68 | 1015.8 |
| 20260503031211 | 45 | 189 | 1.0 | 4.0 | 0.00 | 0.25 | 0.25 | 69 | 1015.9 |
| 20260503030703 | 46 | 265 | 2.0 | 4.0 | 0.00 | 0.25 | 0.25 | 68 | 1015.9 |
| 20260503030201 | 46 | 257 | 2.0 | 3.0 | 0.00 | 0.25 | 0.25 | 67 | 1015.8 |
| 20260503025653 | 46 | 259 | 2.0 | 4.0 | 0.00 | 0.25 | 0.25 | 66 | 1015.9 |
| 20260503025151 | 46 | 242 | 2.0 | 6.0 | 0.00 | 0.25 | 0.25 | 66 | 1015.9 |
| 20260503024646 | 46 | 242 | 2.0 | 6.0 | 0.00 | 0.25 | 0.25 | 65 | 1016.0 |
| 20260503024144 | 46 | 221 | 2.0 | 4.0 | 0.00 | 0.25 | 0.25 | 66 | 1016.1 |
| 20260503023618 | 46 | 220 | 2.0 | 4.0 | 0.00 | 0.25 | 0.25 | 65 | 1016.1 |
| 20260503023058 | 46 | 261 | 2.0 | 7.0 | 0.00 | 0.25 | 0.25 | 64 | 1016.2 |
| 20260503022559 | 46 | 272 | 2.0 | 7.0 | 0.00 | 0.25 | 0.25 | 63 | 1016.1 |
| 20260503022057 | 46 | 227 | 2.0 | 4.0 | 0.00 | 0.25 | 0.25 | 61 | 1016.1 |
| 20260503021556 | 46 | 270 | 2.0 | 4.0 | 0.00 | 0.25 | 0.25 | 59 | 1016.1 |
| 20260503021028 | 46 | 229 | 2.0 | 6.0 | 0.00 | 0.25 | 0.25 | 58 | 1016.0 |
| 20260503020527 | 46 | 213 | 2.0 | 6.0 | 0.00 | 0.25 | 0.25 | 58 | 1016.0 |
| 20260503015959 | 46 | 229 | 2.0 | 4.0 | 0.00 | 0.25 | 0.25 | 59 | 1016.0 |
| 20260503015456 | 46 | 233 | 2.0 | 7.0 | 0.00 | 0.25 | 0.25 | 59 | 1016.0 |
| 20260503014928 | 46 | 233 | 2.0 | 7.0 | 0.00 | 0.25 | 0.25 | 59 | 1016.0 |
| 20260503014426 | 46 | 236 | 2.0 | 5.0 | 0.00 | 0.25 | 0.25 | 60 | 1016.0 |
| 20260503013906 | 46 | 227 | 2.0 | 5.0 | 0.00 | 0.25 | 0.25 | 60 | 1016.0 |
| 20260503013356 | 46 | 232 | 2.0 | 5.0 | 0.00 | 0.25 | 0.25 | 61 | 1016.0 |
| 20260503012828 | 46 | 250 | 2.0 | 7.0 | 0.00 | 0.25 | 0.25 | 61 | 1015.9 |
| 20260503012325 | 46 | 269 | 1.0 | 7.0 | 0.00 | 0.25 | 0.25 | 60 | 1015.9 |
| 20260503011758 | 46 | 232 | 1.0 | 2.0 | 0.00 | 0.25 | 0.25 | 62 | 1015.9 |
| 20260503011258 | 46 | 232 | 1.0 | 3.0 | 0.00 | 0.25 | 0.25 | 62 | 1015.9 |
| 20260503010728 | 46 | 232 | 1.0 | 3.0 | 0.00 | 0.25 | 0.25 | 62 | 1015.9 |
| 20260503010230 | 46 | 242 | 0.0 | 3.0 | 0.00 | 0.25 | 0.25 | 63 | 1016.0 |
| 20260503005701 | 46 | 241 | 0.0 | 0.0 | 0.00 | 0.25 | 0.25 | 65 | 1015.9 |
| 20260503005135 | 46 | 241 | 0.0 | 0.0 | 0.00 | 0.25 | 0.25 | 65 | 1015.9 |
| 20260503004634 | 46 | 241 | 0.0 | 0.0 | 0.00 | 0.25 | 0.25 | 66 | 1015.9 |
| 20260503004101 | 46 | 241 | 0.0 | 0.0 | 0.00 | 0.25 | 0.25 | 64 | 1015.8 |
| 20260503003532 | 46 | 241 | 0.0 | 0.0 | 0.00 | 0.25 | 0.25 | 63 | 1015.8 |
| 20260503003029 | 46 | 241 | 0.0 | 1.0 | 0.00 | 0.25 | 0.25 | 65 | 1015.8 |
| 20260503002502 | 46 | 241 | 1.0 | 2.0 | 0.00 | 0.25 | 0.25 | 63 | 1015.8 |
| 20260503001959 | 46 | 241 | 1.0 | 3.0 | 0.00 | 0.25 | 0.25 | 63 | 1015.8 |
| 20260503001430 | 46 | 241 | 1.0 | 3.0 | 0.00 | 0.25 | 0.25 | 62 | 1015.7 |
| 20260503000904 | 46 | 241 | 1.0 | 3.0 | 0.00 | 0.25 | 0.25 | 61 | 1015.7 |
| 20260503000336 | 46 | 241 | 0.0 | 3.0 | 0.00 | 0.25 | 0.25 | 61 | 1015.7 |
| 20260502235834 | 46 | 242 | 0.0 | 0.0 | 0.00 | 0.25 | 0.25 | 61 | 1015.8 |
| 20260502235311 | 46 | 242 | 0.0 | 0.0 | 0.00 | 0.25 | 0.25 | 60 | 1015.8 |
| 20260502234741 | 46 | 242 | 0.0 | 2.0 | 0.00 | 0.25 | 0.25 | 61 | 1015.9 |
| 20260502234231 | 46 | 242 | 1.0 | 3.0 | 0.00 | 0.25 | 0.25 | 61 | 1015.8 |
| 20260502233709 | 47 | 242 | 1.0 | 3.0 | 0.00 | 0.25 | 0.25 | 60 | 1015.7 |
| 20260502233141 | 47 | 244 | 1.0 | 3.0 | 0.00 | 0.25 | 0.25 | 59 | 1015.7 |
| 20260502232624 | 47 | 244 | 1.0 | 3.0 | 0.00 | 0.25 | 0.25 | 59 | 1015.8 |
| 20260502232124 | 47 | 244 | 1.0 | 4.0 | 0.00 | 0.25 | 0.25 | 59 | 1015.7 |
| 20260502231621 | 47 | 250 | 1.0 | 5.0 | 0.00 | 0.25 | 0.25 | 58 | 1015.7 |
| 20260502231124 | 47 | 258 | 1.0 | 4.0 | 0.00 | 0.25 | 0.25 | 59 | 1015.9 |
| 20260502230557 | 47 | 273 | 1.0 | 5.0 | 0.00 | 0.25 | 0.25 | 57 | 1015.8 |
| 20260502230055 | 47 | 273 | 2.0 | 6.0 | 0.00 | 0.25 | 0.25 | 58 | 1015.8 |
| 20260502225526 | 47 | 252 | 2.0 | 6.0 | 0.00 | 0.25 | 0.25 | 57 | 1015.9 |
| 20260502225025 | 47 | 241 | 2.0 | 5.0 | 0.00 | 0.25 | 0.25 | 57 | 1015.8 |
| 20260502224500 | 47 | 284 | 2.0 | 6.0 | 0.00 | 0.25 | 0.25 | 56 | 1015.9 |
| 20260502223933 | 47 | 283 | 2.0 | 6.0 | 0.00 | 0.25 | 0.25 | 56 | 1015.9 |
| 20260502223428 | 48 | 263 | 2.0 | 9.0 | 0.00 | 0.25 | 0.25 | 57 | 1015.9 |
| 20260502222924 | 47 | 315 | 3.0 | 9.0 | 0.00 | 0.25 | 0.25 | 57 | 1015.9 |
| 20260502222423 | 47 | 282 | 3.0 | 7.0 | 0.00 | 0.25 | 0.25 | 57 | 1016.0 |
| 20260502221857 | 47 | 248 | 3.0 | 8.0 | 0.00 | 0.25 | 0.25 | 56 | 1015.9 |
| 20260502221400 | 47 | 316 | 3.0 | 10.0 | 0.00 | 0.25 | 0.25 | 56 | 1016.0 |
| 20260502220852 | 48 | 273 | 4.0 | 10.0 | 0.00 | 0.25 | 0.25 | 57 | 1016.0 |